Wappingers Falls, NY

12:01 PM EDT on August 27, 2016 (GMT -0400)
Dutchess County

Weather History for KPOU - January, 2013

Change the Weather History Date:

Thursday, January 10, 2013

  Actual Average Record
Temperature  
Mean Temperature 36 °F 25 °F  
Max Temperature 47 °F 35 °F 65 °F (2016)
Min Temperature 25 °F 16 °F -16 °F (1968)
Degree Days  
Heating Degree Days 29 40  
Month to date heating degree days 371 392  
Since 1 July heating degree days 2421 2721  
Cooling Degree Days 0 0  
Month to date cooling degree days 0 0  
Year to date cooling degree days 0 0  
Moisture  
Dew Point 21 °F    
Average Humidity 58    
Maximum Humidity 81    
Minimum Humidity 34    
Precipitation  
Precipitation 0.00 in 0.10 in 0.91 in (2016)
Month to date precipitation T 1.02  
Year to date precipitation T 1.02  
Sea Level Pressure  
Sea Level Pressure 30.42 in    
Wind  
Wind Speed 5 mph (NW)    
Max Wind Speed 20 mph    
Max Gust Speed 29 mph    
Visibility 10 miles    
Events      
T = Trace of Precipitation, MM = Missing Value Source: NWS Daily Summary

Daily Weather History Graph

Daily Weather History Graph

Search for Another Location

Airport or City:

Trip Planner

Search our weather history database for the weather conditions in past years. The results will help you decide how hot, cold, wet, or windy it might be!

Date:

Astronomy

Jan. 10, 2013 Rise Set
Actual Time 7:21 AM EST 4:45 PM EST
Civil Twilight 6:50 AM EST 5:15 PM EST
Nautical Twilight 6:16 AM EST 5:50 PM EST
Astronomical Twilight 5:42 AM EST 6:23 PM EST
Moon 5:58 AM EST (1/10) 3:50 PM EST (1/10)
Length of Visible Light 10h 25m
Length of Day
9h 23m
Waning Crescent, 2% of the Moon is Illuminated
Jan 10
Waning Crescent
Jan 11
New
Jan 18
First Quarter
Jan 26
Full
Feb 3
Last Quarter

Hourly Weather History & Observations

Time (EST) Temp. Windchill Dew Point Humidity Pressure Visibility Wind Dir Wind Speed Gust Speed Precip Events Conditions
12:53 AM 43.0 °F 37.2 °F 24.1 °F 47% 30.19 in 10.0 mi West 10.4 mph - N/A   Clear
1:53 AM 43.0 °F 37.7 °F 23.0 °F 45% 30.23 in 10.0 mi WNW 9.2 mph - N/A   Clear
2:53 AM 41.0 °F 35.2 °F 21.9 °F 47% 30.25 in 10.0 mi WNW 9.2 mph - N/A   Clear
3:53 AM 41.0 °F 37.1 °F 21.9 °F 47% 30.27 in 10.0 mi WNW 5.8 mph - N/A   Clear
4:53 AM 39.0 °F 34.0 °F 21.9 °F 50% 30.30 in 10.0 mi NW 6.9 mph - N/A   Clear
5:53 AM 37.0 °F 31.6 °F 21.9 °F 54% 30.34 in 10.0 mi West 6.9 mph - N/A   Clear
7:53 AM 28.0 °F - 21.0 °F 75% 30.43 in 10.0 mi Calm Calm - N/A   Clear
8:53 AM 30.0 °F 24.1 °F 21.9 °F 72% 30.45 in 10.0 mi West 5.8 mph - N/A   Clear
9:53 AM 42.1 °F 37.1 °F 19.9 °F 41% 30.48 in 10.0 mi NW 8.1 mph - N/A   Clear
10:53 AM 44.1 °F 38.6 °F 19.9 °F 38% 30.48 in 10.0 mi NW 10.4 mph - N/A   Clear
11:53 AM 43.0 °F 37.7 °F 19.9 °F 40% 30.46 in 10.0 mi NW 9.2 mph - N/A   Clear
12:53 PM 45.0 °F 40.1 °F 19.9 °F 37% 30.44 in 10.0 mi NNW 9.2 mph 16.1 mph N/A   Clear
1:53 PM 45.0 °F 40.6 °F 19.9 °F 37% 30.44 in 10.0 mi NNW 8.1 mph - N/A   Clear
2:53 PM 46.0 °F 42.5 °F 19.9 °F 35% 30.45 in 10.0 mi NNW 6.9 mph - N/A   Clear
3:53 PM 45.0 °F 40.6 °F 21.0 °F 39% 30.47 in 10.0 mi NNE 8.1 mph - N/A   Clear
4:53 PM 42.1 °F 38.4 °F 21.0 °F 43% 30.48 in 10.0 mi NNE 5.8 mph - N/A   Clear
5:53 PM 37.0 °F 34.5 °F 21.9 °F 54% 30.50 in 10.0 mi North 3.5 mph - N/A   Clear
6:53 PM 33.1 °F - 23.0 °F 66% 30.52 in 10.0 mi Calm Calm - N/A   Clear
7:53 PM 30.9 °F - 21.9 °F 69% 30.53 in 10.0 mi Calm Calm - N/A   Clear
8:53 PM 28.9 °F - 23.0 °F 78% 30.54 in 10.0 mi Calm Calm - N/A   Clear
9:53 PM 27.0 °F 23.0 °F 21.0 °F 78% 30.54 in 10.0 mi NNE 3.5 mph - N/A   Clear
11:53 PM 27.0 °F 23.0 °F 21.9 °F 81% 30.55 in 10.0 mi SSE 3.5 mph - N/A   Clear